Regional Weather Roundup
Issued by NWS Goodland, KS

Home | Current Version | Previous Version | Text Only | Print | Product List | Glossary On
Versions: 1 2 3 4 5 6 7 8 9 10 11 12 13 14 15 16 17 18 19 20 21 22 23 24 25 26 27 28 29 30 31 32 33 34 35 36 37 38 39 40 41 42 43 44 45 46 47 48 49 50
682
ASUS43 KGLD 240208
RWRGLD

GOODLAND FORECAST AREA HOURLY WEATHER ROUNDUP
NATIONAL WEATHER SERVICE GOODLAND KS
800 PM MDT SAT SEP 23 2017

...OFFICIAL OBSERVATIONS...

CITY           SKY/WX    TMP DP  RH WIND       PRES   REMARKS
GOODLAND KS    LGT RAIN  57  57 100 E8        29.89F
HILL CITY KS   MOCLDY    72  61  68 CALM      29.84S
IMPERIAL NEB   LGT RAIN  54  52  93 NE12      29.91F
MCCOOK NEB     CLOUDY    60  60 100 NE7       29.87F
AKRON CO       LGT RAIN  46  44  93 N21G31    29.94R VSB 1/4
BURLINGTON CO  LGT RAIN  58  57  97 E12       29.87F
LIMON CO         N/A    N/A N/A N/A MISG      29.97R
$$

...UNOFFICIAL OBSERVATIONS...

CITY           SKY/WX    TMP DP  RH WIND       PRES   REMARKS
LENORA KS        N/A     65  32  29 MISG        N/A
NORTON KS      MOCLDY    61  55  82 NE5       29.85S
SHARON SPRINGS   N/A     61  60  96 S7          N/A
KIT CARSON CO    N/A     60  57  89 MISG        N/A
YUMA CO        LGT RAIN  52  52 100 NE12      29.91S
$$




USA.gov is the U.S. government's official web portal to all federal, state and local government web resources and services.